Tracking 18840 objects as of 17-November-2017
HD Live streaming from Space Station
objects crossing your sky now

FENGYUN 1C DEB

Track FENGYUN 1C DEB now!
10-day predictions


NORAD ID: 29930
Int'l Code: 1999-025JC
Perigee: 715.9 km
Apogee: 959.5 km
Inclination: 99.0 °
Period: 101.5 minutes
Semi major axis: 7208 km
RCS: 0.031 m2 (small)
Launch date: May 10, 1999
Source: People's Republic of China (PRC)
Launch site: Taiyaun Space Center, China (TSC)

Note: This is SATELLITE DEBRIS
aabbcc
Your satellite tracking list
Your tracking list is empty




NASA's NSSDC Master Catalog

Two Line Element Set (TLE):
1 29930U 99025JC  17321.56619296  .00000110  00000-0  65417-4 0  9995
2 29930  99.0001  78.8447 0168998 154.3226 269.6210 14.18466893561015
Source of the keplerian elements: AFSPC